Location: Nora Junction
(43.1400°N, 93.0163°W)
Time: 01:54:57
(UTC+00:00)

SL-16 R/B - Pass Details

Date: 18 November 2025
Orbit: 985 x 1006 km, 99.8° (Epoch: 08 December)

Event Time Altitude Azimuth Distance (km) Brightness Sun altitude
Rises 23:45:52 0° 8° (N) 3,745 5.3 -11.1°
Reaches altitude 10° 23:48:30 10° 1° (N) 2,789 4.7 -11.6°
Maximum altitude 23:54:15 40° 295° (WNW) 1,448 3.9 -12.6°
Drops below altitude 10° 23:59:57 10° 228° (SW) 2,765 5.9 -13.6°
Sets 00:02:34 0° 221° (SW) 3,708 6.5 -14.1°
